Satellite-Ground Cal/Val Region Overpasses Predictions

Prediction of Satellite NPP Overpassing Cal/Val Region: PacNW

Region Location: (Latitude: 10.00, Longitude: 139.50) to (Latitude: 22.70, Longitude: 165.60).

Table of predicted overpasses for the next 14.0 days since TLE Epoch: 7/10/2014
Interval Starting Time Starting Location Ending Time Ending Location
1 07/11/2014 03:37:15 ( 10.04, 147.11) 07/11/2014 03:40:50 ( 22.66, 144.09)
2 07/11/2014 16:09:08 ( 22.67, 144.38) 07/11/2014 16:12:43 ( 10.05, 141.37)
3 07/12/2014 03:18:14 ( 10.02, 151.87) 07/12/2014 03:21:50 ( 22.70, 148.84)
4 07/12/2014 15:50:08 ( 22.69, 149.14) 07/12/2014 15:53:44 ( 10.02, 146.11)
5 07/13/2014 02:59:15 ( 10.05, 156.62) 07/13/2014 03:02:50 ( 22.67, 153.60)
6 07/13/2014 15:31:08 ( 22.66, 153.89) 07/13/2014 15:34:43 ( 10.04, 150.88)
7 07/14/2014 02:40:14 ( 10.03, 161.38) 07/14/2014 02:43:49 ( 22.65, 158.36)
8 07/14/2014 15:12:08 ( 22.68, 158.65) 07/14/2014 15:15:44 ( 10.00, 155.62)
9 07/15/2014 02:21:55 ( 12.42, 165.59) 07/15/2014 02:24:50 ( 22.69, 163.11)
10 07/15/2014 04:02:44 ( 10.01, 140.77) 07/15/2014 04:04:16 ( 15.41, 139.51)
11 07/15/2014 14:53:08 ( 22.70, 163.42) 07/15/2014 14:56:44 ( 10.02, 160.39)
12 07/16/2014 03:43:44 ( 10.05, 145.52) 07/16/2014 03:47:19 ( 22.67, 142.50)
13 07/16/2014 14:37:10 ( 11.98, 165.59) 07/16/2014 14:37:43 ( 10.04, 165.15)
14 07/16/2014 16:15:38 ( 22.66, 142.79) 07/16/2014 16:19:13 ( 10.04, 139.77)
15 07/17/2014 03:24:44 ( 10.03, 150.28) 07/17/2014 03:28:19 ( 22.65, 147.26)
16 07/17/2014 15:56:38 ( 22.68, 147.55) 07/17/2014 16:00:14 ( 10.00, 144.52)
17 07/18/2014 03:05:43 ( 10.01, 155.04) 07/18/2014 03:09:19 ( 22.69, 152.01)
18 07/18/2014 15:37:37 ( 22.70, 152.31) 07/18/2014 15:41:13 ( 10.02, 149.28)
19 07/19/2014 02:46:44 ( 10.05, 159.79) 07/19/2014 02:50:19 ( 22.67, 156.77)
20 07/19/2014 15:18:38 ( 22.66, 157.06) 07/19/2014 15:22:13 ( 10.04, 154.04)
21 07/20/2014 02:27:43 ( 10.04, 164.55) 07/20/2014 02:31:18 ( 22.66, 161.53)
22 07/20/2014 14:59:37 ( 22.67, 161.82) 07/20/2014 15:03:12 ( 10.06, 158.80)
23
